Home > Weather > Walsall > Past weeks

Flag for United Kingdom Past Weather in Walsall, England, United Kingdom — Yesterday and Last 2 Weeks

Now
72 °F

Scattered clouds.


Feels Like: 76 °F
Forecast: 58 / 69 °F
Wind: 3 mph from North

Location: Birmingham / Airport

Current Time: Jul 23, 2016 at 12:20:55 PM

Latest Report: Jul 23, 2016 at 11:50 AM


Visibility: N/A

Pressure: 30.12 "Hg

Humidity: 61%

Dew Point: 57 °F

Location of WalsallLocation

Past Weather in Walsall — Graph

°F

Walsall Temperature Yesterday

Maximum temperature yesterday: 77 °F (at 4:20 PM)
Minimum temperature yesterday: 59 °F (at 4:50 AM)
Average temperature yesterday: 69 °F

High & Low Weather Summary for the Past Weeks

 TemperatureHumidityPressure
High88 °F (Jul 19, 2:20 PM)100% (Jul 12, 11:50 AM)30.30 "Hg (Jul 12, 11:50 AM)
Low48 °F (Jul 13, 4:50 AM)36% (Jul 17, 7:20 PM)29.59 "Hg (Jul 11, 1:20 AM)
Average65 °F74%30.02 "Hg
* Reported Jul 8 11:20 AM — Jul 23 11:20 AM, Walsall, Weather by CustomWeather, © 2016

Note: Actual official high and low records may vary slightly from our data, if they occured in-between our weather recording intervals... More about our weather records

Advertising

Walsall Weather History for the Previous 24 Hours

Scroll right to see more
 ConditionsComfort  
Time TempWeatherWind HumidityBarometerVisibility
11:20 AM
Sat, Jul 23
70 °FScattered clouds.3 mph69%30.12 "HgN/A
10:50 AM72 °FScattered clouds.6 mph65%30.12 "HgN/A
10:20 AM70 °FScattered clouds.5 mph64%30.12 "HgN/A
9:50 AM70 °FPassing clouds.6 mph64%30.12 "HgN/A
9:20 AM68 °FPassing clouds.3 mph69%30.12 "HgN/A
8:50 AM68 °FSunny.3 mph69%30.12 "Hg10 mi
8:20 AM66 °FPassing clouds.5 mph73%30.12 "HgN/A
7:50 AM64 °FPassing clouds.5 mph78%30.12 "HgN/A
7:20 AM64 °FSunny.6 mph78%30.12 "Hg10 mi
6:50 AM63 °FSunny.5 mph83%30.12 "Hg10 mi
6:20 AM63 °FSunny.5 mph83%30.12 "Hg10 mi
5:50 AM61 °FClear.2 mph94%30.12 "Hg10 mi
5:20 AM61 °FClear.3 mph94%30.12 "Hg10 mi
4:50 AM61 °FClear.5 mph94%30.12 "Hg6 mi
4:20 AM63 °FClear.5 mph88%30.12 "Hg10 mi
3:50 AM63 °FClear.5 mph94%30.12 "Hg10 mi
3:20 AM63 °FClear.5 mph94%30.12 "Hg10 mi
2:50 AM63 °FClear.5 mph94%30.12 "Hg10 mi
2:20 AM64 °FClear.5 mph88%30.12 "Hg10 mi
1:50 AM64 °FClear.5 mph88%30.12 "Hg10 mi
1:20 AM64 °FClear.3 mph88%30.12 "Hg10 mi
12:50 AM64 °FClear.5 mph88%30.12 "Hg10 mi
12:20 AM66 °FClear.6 mph78%30.12 "Hg10 mi
11:50 PM
Fri, Jul 22
66 °FClear.6 mph78%30.12 "Hg10 mi
11:20 PM68 °FClear.7 mph73%30.12 "Hg10 mi
10:50 PM70 °FClear.8 mph64%30.12 "Hg10 mi
10:20 PM72 °FClear.8 mph61%30.09 "Hg10 mi
9:50 PM72 °FPassing clouds.5 mph61%30.09 "HgN/A
9:20 PM72 °FScattered clouds.5 mph61%30.09 "HgN/A
8:50 PM72 °FPassing clouds.6 mph61%30.09 "HgN/A
8:20 PM72 °FPassing clouds.6 mph57%30.09 "HgN/A
7:50 PM73 °FScattered clouds.7 mph53%30.09 "HgN/A
7:20 PM73 °FScattered clouds.9 mph57%30.07 "HgN/A
6:50 PM75 °FPassing clouds.6 mph47%30.07 "HgN/A
6:20 PM77 °FPassing clouds.6 mph42%30.07 "HgN/A
5:50 PM77 °FSunny.6 mph42%30.07 "Hg10 mi
5:20 PM77 °FPassing clouds.6 mph42%30.07 "HgN/A
4:50 PM77 °FPassing clouds.7 mph44%30.07 "HgN/A
4:20 PM77 °FScattered clouds.6 mph44%30.07 "HgN/A
3:50 PM75 °FScattered clouds.5 mph47%30.07 "HgN/A
3:20 PM75 °FScattered clouds.7 mph47%30.07 "HgN/A
2:50 PM75 °FScattered clouds.5 mph47%30.07 "HgN/A
2:20 PM75 °FScattered clouds.9 mph47%30.07 "HgN/A
1:50 PM75 °FScattered clouds.6 mph50%30.07 "HgN/A
1:20 PM73 °FScattered clouds.7 mph53%30.07 "HgN/A
12:50 PM72 °FScattered clouds.3 mph57%30.07 "HgN/A
12:20 PM72 °FScattered clouds.6 mph61%30.07 "HgN/A
Weather by CustomWeather, © 2016

See weather overviewHow to use our weather pages